Location: Bazugues
(43.4465°N, 0.3432°E)
Time: 08:15:17
(UTC+00:00)

Cosmos 1953 - Pass Details

Date: 12 January 2026
Orbit: 474 x 489 km, 82.5° (Epoch: 17 February)

Event Time Altitude Azimuth Distance (km) Brightness Sun altitude
Rises 18:51:29 0° 340° (NNW) 2,583 5.9 -22.5°
Reaches altitude 10° 18:53:47 10° 329° (NNW) 1,696 5.1 -22.9°
Maximum altitude 18:57:00 28° 269° (W) 942 4.2 -23.5°
Drops below altitude 10° 19:00:12 10° 209° (SSW) 1,683 5.2 -24.1°
Sets 19:02:29 0° 197° (SSW) 2,558 6.0 -24.5°
